N036SB SCGZ-SCCI

Flight info

Callsign N036SB
Flight time N/A
Altitude 8000
Route SUNLI1J SUNLI DCT ALMIR DCT ISAPU
Aircraft BE36/L-BDFGLORY/S

Departure

Time 2026-04-26 19:42
Airport Guardia Marina Zañartu Airport (SCGZ)

Arrival

Time N/A
Airport President Carlos Ibáñez International Airport (SCCI)
Time Latitude Longitude Altitude Speed Heading
2026-04-26 19:37 -54.93248 -67.61925 92 ft 0 kts
2026-04-26 19:38 -54.93250 -67.61925 92 ft 0 kts
2026-04-26 19:38 -54.93236 -67.61925 92 ft 6 kts 360°
2026-04-26 19:39 -54.93224 -67.61863 92 ft 12 kts 94°
2026-04-26 19:39 -54.93176 -67.61795 92 ft 14 kts
2026-04-26 19:39 -54.93148 -67.61683 92 ft 17 kts 88°
2026-04-26 19:39 -54.93144 -67.61607 92 ft 10 kts 272°
2026-04-26 19:40 -54.93144 -67.61615 92 ft 0 kts 271°
2026-04-26 19:41 -54.93144 -67.61616 92 ft 0 kts 271°
2026-04-26 19:41 -54.93143 -67.61678 92 ft 28 kts 271°
2026-04-26 19:41 -54.93134 -67.62073 92 ft 68 kts 273°
2026-04-26 19:42 -54.93075 -67.63498 246 ft 98 kts 283°
2026-04-26 19:42 -54.92980 -67.64672 529 ft 95 kts 280°
2026-04-26 19:42 -54.92831 -67.65763 829 ft 93 kts 286°
2026-04-26 19:42 -54.92600 -67.66971 1060 ft 111 kts 290°
2026-04-26 19:43 -54.92333 -67.68123 1597 ft 95 kts 294°
2026-04-26 19:43 -54.92044 -67.69160 1941 ft 101 kts 297°
2026-04-26 19:43 -54.91688 -67.70276 2276 ft 107 kts 300°
2026-04-26 19:43 -54.91258 -67.71495 2369 ft 133 kts 302°
2026-04-26 19:44 -54.90731 -67.72899 2534 ft 143 kts 303°
2026-04-26 19:44 -54.90158 -67.74367 2704 ft 149 kts 304°
2026-04-26 19:44 -54.89560 -67.75851 2867 ft 153 kts 305°
2026-04-26 19:44 -54.88935 -67.77366 3029 ft 155 kts 306°
2026-04-26 19:45 -54.88299 -67.78883 3187 ft 155 kts 306°
2026-04-26 19:45 -54.87658 -67.80389 3343 ft 155 kts 307°
2026-04-26 19:45 -54.87060 -67.81931 3495 ft 155 kts 290°
2026-04-26 19:45 -54.87081 -67.83762 3670 ft 153 kts 257°
2026-04-26 19:46 -54.87116 -67.85571 3841 ft 151 kts 282°
2026-04-26 19:46 -54.86881 -67.87338 4009 ft 150 kts 285°
2026-04-26 19:46 -54.86630 -67.89095 4167 ft 150 kts 285°
2026-04-26 19:46 -54.86382 -67.90849 4325 ft 149 kts 285°
2026-04-26 19:47 -54.86138 -67.92597 4483 ft 148 kts 285°
2026-04-26 19:47 -54.86057 -67.93185 4536 ft 148 kts 285°
2026-04-26 19:47 -54.85661 -67.96063 4797 ft 146 kts 285°
2026-04-26 19:47 -54.85426 -67.97778 4957 ft 145 kts 285°
2026-04-26 19:48 -54.85197 -67.99455 5166 ft 140 kts 285°
2026-04-26 19:48 -54.84972 -68.01082 5370 ft 137 kts 285°
2026-04-26 19:48 -54.84749 -68.02671 5566 ft 134 kts 285°
2026-04-26 19:48 -54.84526 -68.04236 5758 ft 133 kts 283°
2026-04-26 19:49 -54.84493 -68.05805 5943 ft 132 kts 268°
2026-04-26 19:49 -54.84578 -68.07381 6129 ft 130 kts 266°
2026-04-26 19:49 -54.84667 -68.08941 6314 ft 129 kts 266°
2026-04-26 19:49 -54.84691 -68.10482 6490 ft 128 kts 281°
2026-04-26 19:50 -54.84332 -68.11880 6670 ft 127 kts 295°
2026-04-26 19:50 -54.83882 -68.13193 6837 ft 126 kts 297°
2026-04-26 19:50 -54.83432 -68.14471 6997 ft 125 kts 297°
2026-04-26 19:50 -54.82970 -68.15776 7158 ft 125 kts 297°
2026-04-26 19:51 -54.82521 -68.17042 7312 ft 125 kts 297°
2026-04-26 19:51 -54.82067 -68.18324 7467 ft 125 kts 297°
2026-04-26 19:51 -54.81614 -68.19609 7620 ft 124 kts 295°
2026-04-26 19:51 -54.81333 -68.21009 7776 ft 122 kts 282°
2026-04-26 19:52 -54.81147 -68.22439 7920 ft 122 kts 280°
2026-04-26 19:52 -54.80966 -68.23908 7994 ft 127 kts 280°
2026-04-26 19:52 -54.80777 -68.25458 8007 ft 134 kts 280°
2026-04-26 19:52 -54.80649 -68.26517 8007 ft 138 kts 280°
2026-04-26 19:53 -54.80566 -68.28195 8007 ft 142 kts 265°
2026-04-26 19:53 -54.80797 -68.30475 8004 ft 145 kts 259°
2026-04-26 19:53 -54.81005 -68.32173 8002 ft 146 kts 259°
2026-04-26 19:53 -54.81221 -68.33907 8001 ft 147 kts 259°
2026-04-26 19:54 -54.81437 -68.35644 8000 ft 148 kts 259°
2026-04-26 19:54 -54.81583 -68.36818 8000 ft 148 kts 259°
2026-04-26 19:54 -54.81800 -68.38564 8000 ft 148 kts 259°
2026-04-26 19:54 -54.82033 -68.40280 7998 ft 149 kts 253°
2026-04-26 19:55 -54.82707 -68.41667 8015 ft 154 kts 223°
2026-04-26 19:55 -54.83598 -68.42733 8006 ft 156 kts 219°
2026-04-26 19:55 -54.84496 -68.43782 8001 ft 156 kts 220°
2026-04-26 19:55 -54.85374 -68.44842 8000 ft 156 kts 221°
2026-04-26 19:56 -54.86252 -68.45943 8000 ft 155 kts 222°
2026-04-26 19:56 -54.87113 -68.47071 8000 ft 155 kts 223°
2026-04-26 19:56 -54.87961 -68.48231 8000 ft 155 kts 224°
2026-04-26 19:56 -54.88790 -68.49419 8000 ft 154 kts 225°
2026-04-26 19:57 -54.89601 -68.50641 8000 ft 154 kts 227°
2026-04-26 19:57 -54.90390 -68.51890 8000 ft 154 kts 228°
2026-04-26 19:57 -54.91162 -68.53182 8000 ft 153 kts 230°
2026-04-26 19:57 -54.91905 -68.54502 8000 ft 153 kts 231°
2026-04-26 19:58 -54.92614 -68.55841 8000 ft 152 kts 233°
2026-04-26 19:58 -54.93305 -68.57242 8000 ft 152 kts 235°
2026-04-26 19:58 -54.93930 -68.58715 8000 ft 150 kts 242°
2026-04-26 19:58 -54.94409 -68.60324 8000 ft 149 kts 249°
2026-04-26 19:59 -54.94765 -68.62012 8000 ft 149 kts 254°
2026-04-26 19:59 -54.95049 -68.63740 8000 ft 148 kts 257°
2026-04-26 19:59 -54.95296 -68.65482 8000 ft 148 kts 258°
2026-04-26 19:59 -54.95525 -68.67234 8000 ft 148 kts 259°
2026-04-26 20:00 -54.95746 -68.68989 8000 ft 148 kts 259°
2026-04-26 20:00 -54.95962 -68.70741 8000 ft 148 kts 259°
2026-04-26 20:00 -54.96162 -68.72501 7999 ft 148 kts 265°
2026-04-26 20:00 -54.95853 -68.74170 7998 ft 152 kts 306°
2026-04-26 20:01 -54.95027 -68.75336 8012 ft 155 kts 320°
2026-04-26 20:01 -54.94114 -68.76361 8003 ft 156 kts 322°
2026-04-26 20:01 -54.93197 -68.77373 8001 ft 156 kts 321°
2026-04-26 20:01 -54.92280 -68.78393 8000 ft 156 kts 321°
2026-04-26 20:02 -54.91378 -68.79406 8000 ft 156 kts 321°
2026-04-26 20:02 -54.90464 -68.80438 8000 ft 156 kts 321°
2026-04-26 20:02 -54.89554 -68.81470 8000 ft 156 kts 321°
2026-04-26 20:02 -54.88939 -68.82168 8000 ft 156 kts 321°
2026-04-26 20:03 -54.87737 -68.83536 8000 ft 156 kts 321°
2026-04-26 20:03 -54.86825 -68.84572 8000 ft 156 kts 321°
2026-04-26 20:03 -54.85915 -68.85607 8000 ft 156 kts 321°
2026-04-26 20:03 -54.85007 -68.86640 8000 ft 156 kts 321°
2026-04-26 20:04 -54.84098 -68.87673 8000 ft 156 kts 321°
2026-04-26 20:04 -54.83197 -68.88697 8000 ft 156 kts 321°
2026-04-26 20:04 -54.82289 -68.89729 8000 ft 156 kts 321°
2026-04-26 20:04 -54.81491 -68.90634 8000 ft 156 kts 321°
2026-04-26 20:05 -54.80455 -68.91810 8000 ft 156 kts 321°
2026-04-26 20:05 -54.79542 -68.92845 8000 ft 156 kts 321°
2026-04-26 20:05 -54.78633 -68.93875 8000 ft 156 kts 321°
2026-04-26 20:05 -54.77735 -68.94892 8000 ft 156 kts 321°
2026-04-26 20:06 -54.76840 -68.95906 8000 ft 156 kts 321°
2026-04-26 20:06 -54.75892 -68.96978 8000 ft 156 kts 321°
2026-04-26 20:06 -54.75037 -68.97945 8000 ft 156 kts 321°
2026-04-26 20:06 -54.74221 -68.98867 8000 ft 156 kts 321°
2026-04-26 20:07 -54.73305 -68.99902 8000 ft 156 kts 321°
2026-04-26 20:07 -54.72395 -69.00930 8000 ft 156 kts 321°
2026-04-26 20:07 -54.71485 -69.01957 8000 ft 156 kts 321°
2026-04-26 20:07 -54.70572 -69.02987 8000 ft 156 kts 321°
2026-04-26 20:08 -54.69662 -69.04013 8000 ft 156 kts 321°
2026-04-26 20:08 -54.68760 -69.05028 8000 ft 156 kts 321°
2026-04-26 20:08 -54.67829 -69.06077 8000 ft 156 kts 321°
2026-04-26 20:08 -54.66932 -69.07087 8000 ft 156 kts 321°
2026-04-26 20:09 -54.66020 -69.08112 8000 ft 156 kts 321°
2026-04-26 20:09 -54.65111 -69.09134 8000 ft 156 kts 321°
2026-04-26 20:09 -54.64199 -69.10159 8000 ft 156 kts 321°
2026-04-26 20:09 -54.63288 -69.11182 8000 ft 156 kts 321°
2026-04-26 20:10 -54.62375 -69.12206 8000 ft 156 kts 321°
2026-04-26 20:10 -54.61466 -69.13227 8000 ft 156 kts 321°
2026-04-26 20:10 -54.60553 -69.14250 8000 ft 156 kts 321°
2026-04-26 20:10 -54.59641 -69.15272 8000 ft 156 kts 321°
2026-04-26 20:11 -54.58728 -69.16294 8000 ft 156 kts 321°
2026-04-26 20:11 -54.57816 -69.17316 8000 ft 156 kts 321°
2026-04-26 20:11 -54.56904 -69.18336 8000 ft 156 kts 321°
2026-04-26 20:12 -54.55077 -69.20378 8000 ft 156 kts 321°
2026-04-26 20:12 -54.54166 -69.21395 8000 ft 156 kts 321°
2026-04-26 20:12 -54.52909 -69.22799 8000 ft 156 kts 321°
2026-04-26 20:12 -54.51081 -69.24837 8000 ft 156 kts 321°
2026-04-26 20:13 -54.49256 -69.26869 8000 ft 156 kts 321°
2026-04-26 20:13 -54.47426 -69.28906 8000 ft 156 kts 321°
2026-04-26 20:13 -54.45598 -69.30938 8000 ft 156 kts 321°
2026-04-26 20:13 -54.43767 -69.32971 8000 ft 156 kts 321°
2026-04-26 20:14 -54.41933 -69.35005 8000 ft 156 kts 321°
2026-04-26 20:14 -54.40107 -69.37028 8000 ft 156 kts 321°
2026-04-26 20:14 -54.38280 -69.39049 8000 ft 156 kts 321°
2026-04-26 20:14 -54.36449 -69.41074 8000 ft 156 kts 321°
2026-04-26 20:15 -54.34625 -69.43088 8000 ft 156 kts 321°
2026-04-26 20:15 -54.32793 -69.45109 8000 ft 156 kts 321°
2026-04-26 20:15 -54.30961 -69.47127 8000 ft 156 kts 321°
2026-04-26 20:15 -54.29130 -69.49142 8000 ft 156 kts 321°
2026-04-26 20:16 -54.27294 -69.51162 8000 ft 156 kts 321°
2026-04-26 20:16 -54.25488 -69.53145 8000 ft 156 kts 321°
2026-04-26 20:16 -54.23654 -69.55157 8000 ft 156 kts 321°
2026-04-26 20:16 -54.21821 -69.57165 8000 ft 156 kts 321°
2026-04-26 20:17 -54.19987 -69.59173 8000 ft 156 kts 321°
2026-04-26 20:17 -54.18150 -69.61181 8000 ft 156 kts 321°
2026-04-26 20:17 -54.16319 -69.63181 8000 ft 156 kts 321°
2026-04-26 20:17 -54.15077 -69.64537 8000 ft 156 kts 321°
2026-04-26 20:18 -54.12607 -69.67232 8001 ft 161 kts 321°
2026-04-26 20:18 -54.10706 -69.69303 8001 ft 163 kts 322°
2026-04-26 20:18 -54.08793 -69.71382 8000 ft 163 kts 322°
2026-04-26 20:18 -54.06873 -69.73465 8000 ft 164 kts 322°
2026-04-26 20:19 -54.04949 -69.75548 8000 ft 164 kts 322°
2026-04-26 20:19 -54.03023 -69.77627 8000 ft 164 kts 322°
2026-04-26 20:19 -54.01093 -69.79698 8000 ft 164 kts 322°
2026-04-26 20:19 -53.99069 -69.81530 8000 ft 166 kts 328°
2026-04-26 20:20 -53.96974 -69.83210 8000 ft 166 kts 329°
2026-04-26 20:20 -53.94848 -69.84871 7728 ft 174 kts 329°
2026-04-26 20:20 -53.92621 -69.86587 7402 ft 176 kts 330°
2026-04-26 20:20 -53.90378 -69.88304 7092 ft 176 kts 330°
2026-04-26 20:21 -53.88188 -69.89969 6999 ft 168 kts 330°
2026-04-26 20:21 -53.86768 -69.91045 6998 ft 164 kts 330°
2026-04-26 20:21 -53.81584 -69.94980 7000 ft 160 kts 329°
2026-04-26 20:21 -53.77409 -69.98161 6600 ft 174 kts 330°
2026-04-26 20:22 -53.74455 -70.00405 6161 ft 176 kts 331°
2026-04-26 20:22 -53.69966 -70.03799 5492 ft 176 kts 333°
2026-04-26 20:22 -53.65509 -70.07157 5004 ft 170 kts 335°
2026-04-26 20:22 -53.62360 -70.12564 4999 ft 162 kts 302°
2026-04-26 20:23 -53.61184 -70.19759 4923 ft 164 kts 279°
2026-04-26 20:23 -53.60561 -70.27784 4336 ft 177 kts 279°
2026-04-26 20:23 -53.60321 -70.30749 4124 ft 179 kts 279°
2026-04-26 20:23 -53.60148 -70.32836 3976 ft 180 kts 279°
2026-04-26 20:24 -53.59969 -70.34929 3827 ft 179 kts 279°
2026-04-26 20:24 -53.59788 -70.36987 3676 ft 177 kts 279°
2026-04-26 20:24 -53.59319 -70.38851 3519 ft 175 kts 312°
2026-04-26 20:24 -53.58257 -70.39744 3378 ft 174 kts 351°
2026-04-26 20:25 -53.57055 -70.39844 3247 ft 173 kts 355°
2026-04-26 20:25 -53.56281 -70.40175 3155 ft 173 kts 339°
2026-04-26 20:25 -53.54837 -70.41364 2966 ft 174 kts 332°
2026-04-26 20:25 -53.53752 -70.42351 2821 ft 182 kts 331°
2026-04-26 20:26 -53.52619 -70.43377 2669 ft 187 kts 334°
2026-04-26 20:26 -53.51345 -70.43739 2560 ft 187 kts
2026-04-26 20:26 -53.50077 -70.43464 2514 ft 185 kts
2026-04-26 20:26 -53.48813 -70.43092 2501 ft 183 kts 10°
2026-04-26 20:27 -53.47563 -70.42722 2499 ft 181 kts
2026-04-26 20:27 -53.46322 -70.42370 2499 ft 180 kts
2026-04-26 20:27 -53.45086 -70.42037 2500 ft 180 kts
2026-04-26 20:27 -53.43855 -70.41724 2500 ft 179 kts
2026-04-26 20:28 -53.42617 -70.41428 2500 ft 179 kts
2026-04-26 20:28 -53.41378 -70.41151 2500 ft 179 kts
2026-04-26 20:28 -53.40140 -70.40894 2500 ft 179 kts
2026-04-26 20:28 -53.38902 -70.40658 2500 ft 179 kts
2026-04-26 20:29 -53.37659 -70.40441 2500 ft 179 kts
2026-04-26 20:29 -53.36433 -70.40249 2500 ft 179 kts
2026-04-26 20:29 -53.35175 -70.40074 2500 ft 179 kts
2026-04-26 20:29 -53.33948 -70.39926 2500 ft 179 kts
2026-04-26 20:30 -53.32699 -70.39798 2500 ft 179 kts
2026-04-26 20:30 -53.31452 -70.39696 2500 ft 179 kts
2026-04-26 20:30 -53.30208 -70.39619 2500 ft 179 kts
2026-04-26 20:30 -53.28959 -70.39567 2500 ft 179 kts
2026-04-26 20:31 -53.27751 -70.39580 2291 ft 164 kts 351°
2026-04-26 20:31 -53.26771 -70.39277 1509 ft 126 kts 19°
2026-04-26 20:31 -53.25987 -70.38899 1048 ft 114 kts 20°
2026-04-26 20:31 -53.25493 -70.37947 633 ft 110 kts 72°
2026-04-26 20:32 -53.25258 -70.36793 548 ft 101 kts 71°
2026-04-26 20:32 -53.25048 -70.35705 463 ft 98 kts 72°
2026-04-26 20:32 -53.24930 -70.34585 306 ft 101 kts 89°
2026-04-26 20:32 -53.25050 -70.33424 145 ft 101 kts 106°
2026-04-26 20:33 -53.25109 -70.33062 114 ft 98 kts 106°